Location: ????????????
(55.1725°N, 38.8186°E)
Time: 18:12:52
(UTC+00:00)

Daily predictions for brighter satellites

Satellite Brightness Start Highest point End
(mag) Time Altitude Azimuth Time Altitude Azimuth Time Altitude Azimuth
RESURS DK-1 3.9 13:37:57 10° NNW 13:40:48 18° NNE 13:43:39 10° ENE
CZ-4B R/B 4.5 13:38:10 10° ESE 13:42:06 24° NE 13:45:59 10° N
SL-16 R/B 2.8 13:36:25 10° NNE 13:42:42 75° WNW 13:48:57 10° SSW
Aureole 3 Rocket 3.0 13:37:59 10° N 13:43:04 79° ENE 13:46:47 10° SSE
Cosmos 2297 Rocket 2.3 13:43:13 10° SW 13:48:52 80° NW 13:54:34 10° NNE
Cosmos 407 Rocket 4.0 13:44:37 10° NNW 13:49:25 36° NE 13:54:08 10° ESE
Cosmos 1606 2.5 13:45:48 10° S 13:49:25 84° E 13:53:07 10° NNE
Cosmos 1634 Rocket 4.1 13:43:05 10° N 13:49:26 88° E 13:55:46 10° S
Cosmos 1953 Rocket 3.6 13:45:06 10° N 13:49:35 83° ENE 13:54:02 10° SSE
USA 305 3.5 13:46:37 10° W 13:50:17 52° SSW 13:54:03 10° SE
Cosmos 2298 Rocket 4.1 13:45:36 10° SSW 13:50:56 86° ESE 13:56:19 10° NNE
SMAP 3.5 13:46:57 10° SE 13:51:18 41° ENE 13:55:42 10° N
Cosmos 1500 3.2 13:51:06 10° N 13:54:33 48° ENE 13:57:58 10° SSE
Cosmos 2219 3.5 13:50:07 10° S 13:55:32 52° ESE 14:01:01 10° NE
Cosmos 2251 Rocket 3.9 13:51:34 10° NNW 13:56:40 42° NE 14:01:44 10° ESE
Helios 1B rocket 2.3 13:53:05 10° SSE 13:57:01 72° ENE 14:00:58 10° NNW
UNK 4.4 13:53:12 10° N 13:57:43 55° WNW 14:02:13 10° SW
H-2A R/B 3.6 13:54:21 10° SSW 13:59:01 37° W 14:03:39 10° NNW
CZ-4B R/B 4.2 13:56:39 10° SE 13:59:55 34° ENE 14:03:18 10° N
NOSS 3-3 (C) 4.0 13:58:10 10° SW 14:03:57 84° NW 14:10:42 11° NE
NOSS 3-3 (A) 4.0 13:58:32 10° SW 14:04:17 83° NW 14:11:01 11° NE
Cosmos 2142 Rocket 4.4 13:58:40 10° N 14:04:50 73° ENE 14:10:58 10° SSE
Cosmos 1833 Rocket 4.1 14:02:46 10° NNW 14:06:52 20° NNE 14:10:23 12° ENE
Cosmos 405 Rocket 2.8 14:04:03 10° S 14:07:48 59° E 14:11:38 10° NNE
SJ-11-01 4.3 14:05:07 10° SSE 14:09:46 89° ENE 14:14:28 10° NNW
ISS -1.0 14:07:59 10° WSW 14:10:29 20° SSW 14:13:00 10° SSE
Cosmos 2082 4.1 14:05:29 10° S 14:10:47 45° ESE 14:16:02 10° NE
Cosmos 1862 4.1 14:08:33 10° NNW 14:12:22 53° W 14:16:12 10° S
BREEZE-M DEB (TANK) 3.7 14:13:16 10° SSE 14:13:26 10° SSE 14:13:36 10° SSE
Cosmos 2279 Rocket 4.0 14:07:10 10° N 14:13:27 88° E 14:19:41 10° S
Cosmos 2151 3.1 14:09:43 10° NNW 14:14:01 83° WSW 14:18:17 10° S
COSMO-SKYMED 1 4.3 14:15:04 13° ENE 14:15:40 13° E 14:17:50 10° ESE
Lacrosse 4 Rocket 1.4 14:13:52 10° NW 14:18:16 82° NE 14:22:33 10° SE
Cosmos 1023 Rocket 4.4 14:13:46 10° NNW 14:18:57 69° ENE 14:24:03 10° SE
Cosmos-2242 4.0 14:15:49 10° SE 14:19:28 27° E 14:23:00 11° NNE
Cosmos 2058 Rocket 3.1 14:16:46 10° S 14:21:09 66° E 14:25:32 10° NNE
Cosmos 1190 Rocket 4.5 14:16:23 10° NNW 14:21:22 39° NE 14:26:20 10° ESE
SL-08 RB Rocket 4.4 14:18:04 10° S 14:22:29 59° W 14:26:59 10° NNW
Cosmos 1606 Rocket 4.4 14:23:10 10° SSW 14:27:31 53° WNW 14:31:53 10° N
Cosmos 1726 Rocket 4.0 14:23:58 10° SSW 14:28:22 66° WNW 14:32:48 10° N
CZ-2D R/B 3.8 14:27:30 10° S 14:31:08 58° W 14:34:47 10° NNW
YAOGAN 11 4.2 14:30:48 10° NNE 14:35:20 64° ESE 14:39:51 10° S
Cosmos 1812 3.3 14:33:38 10° SSE 14:36:55 31° E 14:38:46 20° NE
Cosmos 2263 Rocket 2.3 14:31:39 10° SSW 14:37:06 59° ESE 14:41:40 15° NE
AQUARIUS 4.1 14:32:40 10° SSE 14:37:07 75° ENE 14:41:37 10° NNW
Cosmos 44 Rocket 4.4 14:32:53 10° NW 14:37:32 31° NNE 14:40:18 19° ENE
Cosmos 1844 Rocket 4.1 14:34:29 10° SE 14:37:56 17° E 14:38:39 17° E
Nadezhda 4 Rocket 4.1 14:32:10 10° SSE 14:38:02 50° E 14:43:55 10° NNE
BREEZE-M DEB (TANK) 4.0 14:34:47 10° SW 14:38:34 58° SSE 14:48:29 17° ENE
Cosmos 1437 Rocket 4.4 14:37:03 10° NNW 14:40:28 35° W 14:43:54 10° SSW
CORIOLIS 4.2 14:35:28 10° SSE 14:40:50 86° WSW 14:46:16 10° NNW
CZ-2C R/B 3.4 14:39:08 10° S 14:42:39 55° W 14:46:14 10° NNW
Meteor 1-20 Rocket 4.1 14:37:58 10° NNW 14:43:33 72° ENE 14:49:10 10° SSE
Cosmos 2082 Rocket 3.8 14:39:58 10° NNW 14:43:43 18° NNE 14:45:41 15° NE
Cosmos 2227 Rocket 2.7 14:39:34 10° SW 14:45:09 59° NW 14:50:24 12° NNE
USA 276 3.9 14:44:34 10° S 14:45:55 13° SSE 14:46:24 13° SE
Cosmos 1140 Rocket 3.5 14:41:19 10° NNW 14:46:33 83° WSW 14:51:42 10° SSE
Cosmos 1766 Rocket 4.4 14:43:25 10° N 14:47:13 28° ENE 14:50:58 10° SE
ATLAS CENTAUR R/B 3.6 14:46:05 10° WNW 14:49:50 44° SSW 14:56:41 10° SE
ADEOS 3.9 14:46:43 10° SE 14:51:36 43° ENE 14:56:32 10° N
ERS-2 4.5 14:49:34 10° SSW 14:51:51 20° W 14:54:10 10° NW
NOSS 8 (A) 4.3 14:50:10 10° SW 14:53:35 60° SE 14:54:27 39° ENE
YAOGAN 1 3.4 14:52:56 26° ENE 14:53:39 27° ENE 14:57:19 10° N
Cosmos 1603 3.7 14:49:00 10° NW 14:54:45 86° WSW 15:00:25 10° SSE
DMSP B5D2-2 4.0 14:50:45 10° NNE 14:56:00 85° ESE 15:01:14 10° SSW
Cosmos 1933 4.4 14:53:54 10° SSE 14:56:42 25° ESE 14:56:42 25° ESE
Cosmos 1666 3.7 14:55:16 10° NNW 14:58:40 44° W 15:02:02 10° SSW
CBERS 1 LM4 rocket 4.2 14:57:33 10° SSE 15:02:17 68° ENE 15:07:00 10° NNW
SKYMED 2 4.2 15:03:42 31° E 15:04:16 33° E 15:08:12 10° SSE
Meteor PRIRODA 4.4 15:06:54 31° NNE 15:06:54 31° NNE 15:09:09 10° N
SL-08 R/B 4.3 15:07:56 26° ESE 15:07:56 26° ESE 15:11:12 10° SSE
Meteor 1-31 Rocket 3.7 15:05:47 10° S 15:09:22 48° W 15:13:01 10° NNW
CZ-4B R/B 3.5 15:09:18 36° E 15:09:44 37° ENE 15:13:34 10° N
OPS 6432 4.3 15:07:25 10° NW 15:10:28 50° NNE 15:10:28 50° NNE
Cosmos 1607 4.1 15:08:39 10° SW 15:15:03 76° NW 15:19:10 24° NE
Cosmos 676 Rocket 4.0 15:10:09 10° NNW 15:15:25 57° NE 15:19:20 18° SE
ATLAS 2AS CENTAUR R/B 2.6 15:08:45 10° NW 15:15:50 84° NE 15:21:39 15° SE
Cosmos 1943 4.3 15:13:14 10° NW 15:18:36 47° WSW 15:23:57 10° S
RESURS DK-1 2.3 15:15:21 10° NNW 15:19:26 61° NE 15:20:29 44° ESE
CZ-4B R/B 3.6 15:15:18 10° SSE 15:20:21 75° WSW 15:25:17 10° NNW
Helios 1A 2.8 15:22:23 36° NNE 15:23:58 67° ESE 15:28:06 10° S
Radarsat Rocket 4.0 15:19:08 10° SSE 15:24:59 86° WSW 15:31:17 10° NNW
Cosmos 1812 Rocket 3.4 15:22:09 10° S 15:26:29 84° ESE 15:29:15 23° NNE
NOAA 6 4.0 15:22:30 10° SSE 15:27:39 83° WSW 15:32:48 10° NNW
Cosmos 1782 2.8 15:24:10 10° S 15:27:49 56° ESE 15:27:49 56° ESE
Cosmos 1271 Rocket 3.6 15:24:15 10° N 15:26:37 33° NNE 15:26:37 33° NNE
Cosmos 407 Rocket 4.3 15:26:35 10° NW 15:31:35 52° WSW 15:36:33 10° S
Cosmos 2297 Rocket 3.8 15:29:00 10° W 15:33:47 27° NNW 15:37:23 15° NNE
Cosmos 2344 3.6 15:26:51 10° SSW 15:34:01 54° SE 15:37:03 34° ENE
CZ-4B DEB 4.2 15:29:09 10° SE 15:34:28 56° ENE 15:39:54 10° N
ADEOS Rocket 3.7 15:35:52 30° NE 15:35:52 30° NE 15:40:03 10° N
Cosmos 2219 4.2 15:34:31 10° WSW 15:39:52 42° NW 15:43:29 20° NNE
Cosmos 1741 Rocket 4.5 15:37:22 10° NNW 15:42:04 41° NE 15:42:04 41° NE
Cosmos 1850 Rocket 4.4 15:39:06 10° NNW 15:43:36 42° NE 15:43:36 42° NE
Timation 2 Rocket 4.1 15:39:51 10° S 15:45:28 44° ESE 15:45:41 44° ESE
Cosmos 1954 Rocket 4.0 15:40:59 10° NNW 15:46:18 83° WSW 15:51:05 12° SSE
Cosmos 220 Rocket 4.5 15:42:51 10° NNW 15:47:08 59° WSW 15:51:16 10° S
Cosmos 1844 4.1 15:43:24 10° S 15:48:28 43° ESE 15:48:28 43° ESE
Cosmos 2056 Rocket 4.1 15:44:10 10° S 15:48:24 41° SE 15:48:24 41° SE
S3M 4.1 15:44:50 10° N 15:50:40 47° ENE 15:50:40 47° ENE
USA 234 3.5 15:50:14 42° E 15:51:57 52° SE 15:58:19 10° SW
Cosmos 1833 Rocket 3.0 15:46:45 10° NNW 15:52:06 46° NE 15:52:06 46° NE
COSMO-SKYMED 1 2.4 15:52:17 78° NE 15:52:32 84° ESE 15:56:54 10° SSW
Meteor 1-14 Rocket 4.1 15:47:24 10° N 15:52:55 60° ENE 15:53:30 57° E
Cosmos 1553 Rocket 3.9 15:46:33 10° N 15:52:56 77° ENE 15:59:11 10° SSE
Lacrosse 5 2.8 15:48:41 10° SSW 15:52:30 32° SSE 15:52:30 32° SSE
Cosmos 2082 4.5 15:49:29 10° WSW 15:54:55 48° NW 15:57:54 25° NNE
Lacrosse 4 Rocket 4.2 15:53:07 10° WNW 15:56:08 19° WSW 15:59:07 10° SSW
Cosmos-2242 4.1 15:52:30 10° SW 15:56:40 44° WNW 15:59:41 17° N
Meteor 2-2 Rocket 4.5 15:54:26 10° SSW 16:00:13 73° WNW 16:05:55 11° NNE
PAYLOAD B 4.1 15:59:55 59° ESE 16:00:44 67° ENE 16:06:18 10° NNW
Cosmos 2026 Rocket 4.0 15:59:15 10° SSW 16:05:33 82° WNW 16:11:59 10° N
COSMOS 2406 4.5 16:01:11 10° NNW 16:04:56 27° NNE 16:04:56 27° NNE
Cosmos 2221 4.2 16:02:46 10° S 16:04:18 22° S 16:04:18 22° S
Cosmos 1818 3.4 16:02:33 10° SW 16:08:00 75° SE 16:08:07 75° ESE
Cosmos 1371 Rocket 4.4 16:08:15 10° SSW 16:12:11 49° S 16:12:11 49° S
CZ-4B R/B 3.5 16:19:50 54° NNE 16:19:50 54° NNE 16:24:17 10° NNW
Cosmos 44 Rocket 3.8 16:14:41 10° NW 16:18:59 54° N 16:18:59 54° N
Cosmos 1844 Rocket 2.6 16:15:23 10° SSW 16:20:21 69° S 16:20:21 69° S
Meteor 1-26 Rocket 4.1 16:15:23 10° SSW 16:20:59 89° WNW 16:21:52 66° N
Cosmos 2263 Rocket 3.3 16:16:07 10° WSW 16:21:19 39° NW 16:23:22 29° N
Cosmos 1092 Rocket 4.3 16:16:58 10° SSW 16:23:02 63° WNW 16:29:11 10° N
YAOGAN 1 3.5 16:29:59 46° WNW 16:29:59 46° WNW 16:33:42 10° NNW
Cosmos 2082 Rocket 3.5 16:24:18 10° NNW 16:27:31 28° N 16:27:31 28° N
Cosmos 1420 Rocket 4.5 16:24:14 10° SSW 16:28:11 53° SSW 16:28:11 53° SSW
Cosmos 2227 Rocket 4.0 16:25:59 10° WNW 16:30:24 23° NNW 16:32:12 19° N
Cosmos 1417 Rocket 4.5 16:31:01 10° NNW 16:37:20 81° W 16:39:18 47° S
ATLAS 2AS CENTAUR R/B 4.0 17:00:09 10° WNW 17:06:09 33° WSW 17:09:08 23° SSW
Cosmos 2297 Rocket 4.4 17:16:18 10° NW 17:19:11 16° NNW 17:19:11 16° NNW
ADEOS Rocket 4.2 17:22:48 32° NNW 17:22:48 32° NNW 17:26:01 10° NNW
USA 234 4.1 17:37:35 45° WSW 17:37:35 45° WSW 17:41:54 10° WSW
Lacrosse 5 4.4 17:30:44 10° WSW 17:31:43 16° WSW 17:31:43 16° WSW
Cosmos 1833 Rocket 4.4 17:30:49 10° NW 17:33:48 29° WNW 17:33:48 29° WNW
Cosmos 2344 4.0 17:41:10 10° WSW 17:47:04 53° WNW 17:47:04 53° WNW
